Weather in Iisalmi

Finland     63°33′13″N   27°12′11″E
temp.,
°C
wind,
m/s
gust,
m/s
humid.,
%
clouds,
%
prec.,
mm/h
press.,
hPa
HPBL,
m
3 march, wed
wed323:00−1wnw414830 0.0 1015665
02:00−2wnw4118722 0.0 1014443
05:00−3w411910 0.0 1011424
08:00−3w4129217 0.0 1009508
11:000w51189100 0.0 1005948
14:000wnw61279100 1.0 10031380
17:00−2nw4127733 0.1 1003864
20:00−5wnw4138217 0.1 1003445
4 march, thu
thu423:00−7wnw39910 0.0 1003251
02:00−9nw310959 0.0 1005296
05:00−8nnw4119396 0.1 1005539
08:00−10nw3109597 0.1 1006343
11:00−7nw498996 0.0 1007546
14:00−6nw488697 0.1 1007800
17:00−7nw41085100 0.1 1007682
20:00−10nw3118971 0.1 1007338
5 march, fri
fri523:00−11nw310943 0.0 1008303
02:00−11nnw3109549 0.1 1009340
05:00−13nnw239687 0.0 101181
08:00−11nw279694 0.0 1012254
11:00−8nnw389192 0.0 1014470
14:00−6nnw478491 0.0 1015680
17:00−8nw27890 0.0 1015226
20:00−11wnw23949 0.0 101746
6 march, sat
sat623:00−13w229349 0.0 101621
02:00−14wsw229625 0.0 101521
05:00−14ssw239749 0.0 101271
08:00−11s389574 0.0 1007218
11:00−6s51294100 0.7 1000594
14:00−4s61394100 2.6 993707
17:000w51196100 1.8 987905
20:00−2w31094100 1.9 984497
7 march, sun
sun723:00−9wnw81583100 1.8 985988
02:00−12wnw71489100 1.9 9851011
05:00−11nw71492100 1.0 984818
08:00−9n71290100 1.7 9871033
11:00−9n71288100 0.3 9931072
14:00−9nne61186100 0.4 999956
17:00−10nne51186100 0.1 1005835
20:00−13nne4138892 0.1 1009543